Home > Weather > Nipigon > Past weeks

Flag for Canada Weather for the Past 2 Weeks in Nipigon, Ontario, Canada

Now
36 °F

Chilly.


Feels Like: 29 °F
Forecast: N/A
Wind: 10 mph from Northwest

Location: Katatota Island

Current Time: Apr 28, 2016 at 4:47:53 PM

Latest Report: Apr 28, 2016 at 3:00 PM


Visibility: N/A

Pressure: 30.22 "Hg

Humidity: 77%

Dew Point: 30 °F

Location of NipigonLocation

Historic Weather in Nipigon — Graph

°F

Nipigon Temperature Yesterday

Maximum temperature yesterday: 40 °F (at 8:00 PM)
Minimum temperature yesterday: 22 °F (at 6:00 AM)
Average temperature yesterday: 31 °F

High & Low Weather Summary for the Past Weeks

 TemperatureHumidityPressure
High53 °F (Apr 20, 5:00 PM)100% (Apr 17, 6:00 PM)30.54 "Hg (Apr 17, 6:00 PM)
Low22 °F (Apr 27, 6:00 AM)44% (Apr 22, 7:00 PM)29.81 "Hg (Apr 21, 5:00 AM)
Average35 °F78%30.21 "Hg
* Reported Apr 13 3:00 PM — Apr 28 3:00 PM, Nipigon, Weather by CustomWeather, © 2016

Note: Actual official high and low records may vary slightly from our data, if they occured in-between our weather recording intervals... More about our weather records

Advertising

Nipigon Weather History for the Previous 24 Hours

Scroll right to see more
 ConditionsComfort  
Time TempWeatherWind HumidityBarometerVisibility
3:00 PM
Thu, Apr 28
36 °FChilly.10 mph77%30.22 "HgN/A
2:00 PM35 °FChilly.10 mph80%30.24 "HgN/A
1:00 PM34 °FChilly.13 mph81%30.24 "HgN/A
12:00 PM34 °FChilly.13 mph81%30.24 "HgN/A
11:00 AM34 °FChilly.6 mph78%30.25 "HgN/A
10:00 AM33 °FChilly.7 mph78%30.24 "HgN/A
9:00 AM32 °FChilly.6 mph83%30.23 "HgN/A
8:00 AM29 °FChilly.7 mph87%30.22 "HgN/A
7:00 AM28 °FChilly.7 mph89%30.22 "HgN/A
6:00 AM29 °FChilly.10 mph85%30.20 "HgN/A
5:00 AM29 °FChilly.9 mph86%30.20 "HgN/A
4:00 AM29 °FChilly.7 mph86%30.20 "HgN/A
3:00 AM30 °FChilly.9 mph85%30.19 "HgN/A
2:00 AM31 °FChilly.10 mph81%30.19 "HgN/A
1:00 AM32 °FChilly.9 mph81%30.19 "HgN/A
12:00 AM33 °FChilly.10 mph83%30.17 "HgN/A
11:00 PM
Wed, Apr 27
32 °FChilly.10 mph80%30.17 "HgN/A
10:00 PM35 °FChilly.10 mph70%30.16 "HgN/A
9:00 PM36 °FChilly.15 mph64%30.12 "HgN/A
8:00 PM40 °FChilly.15 mph48%30.12 "HgN/A
7:00 PM36 °FChilly.15 mph66%30.14 "HgN/A
5:00 PM38 °FChilly.13 mph63%30.13 "HgN/A
4:00 PM38 °FChilly.13 mph61%30.14 "HgN/A
Weather by CustomWeather, © 2016

See weather overviewHow to use our weather pages